Tracking 19575 objects as of 18-Feb-2019
HD Live streaming from Space Station
objects crossing your sky now

MOLNIYA 2-9

Track MOLNIYA 2-9 now!
MOLNIYA 2-9 is classified as:


NORAD ID: 7276
Int'l Code: 1974-026A
Perigee: 951.7 km
Apogee: 32,779.9 km
Inclination: 63.4 °
Period: 587.5 minutes
Semi major axis: 23236 km
RCS: 14.5607 m2 (large)
Launch date: April 26, 1974
Source: Commonwealth of Independent States (former USSR) (CIS)
Launch site: PLESETSK MISSILE AND SPACE COMPLEX (PKMTR)
aabbcc
Your satellite tracking list
Your tracking list is empty




NASA's NSSDC Master Catalog

Two Line Element Set (TLE):
1  7276U 74026A   19048.95619029 -.00000021 +00000-0 +64389-3 0  9991
2  7276 063.3776 064.1837 6848675 289.4420 012.0432 02.45097721219560
Source of the keplerian elements: AFSPC